Previsão horária em Jundiá

Hoje, 23 Junho, Quarta-feira

Tempo Temperatura Precipitação Vento Pressão Humidade
00:00 +23°C° 0 mm 1 m/s 752 mmHg 94%
01:00 +23°C° 0 mm 1 m/s 752 mmHg 94%
02:00 +23°C° 0.1 mm 1 m/s 752 mmHg 94%
03:00 +23°C° 0.1 mm 1 m/s 752 mmHg 95%
04:00 +22°C° 0 mm 1 m/s 751 mmHg 95%
05:00 +23°C° 0 mm 1 m/s 752 mmHg 95%
06:00 +23°C° 0 mm 1 m/s 752 mmHg 95%
07:00 +23°C° 0 mm 1 m/s 752 mmHg 95%
08:00 +24°C° 0.1 mm 1 m/s 752 mmHg 90%
09:00 +25°C° 0.1 mm 1 m/s 753 mmHg 85%
10:00 +27°C° 0.1 mm 1 m/s 753 mmHg 80%
11:00 +27°C° 0.1 mm 2 m/s 753 mmHg 75%
12:00 +28°C° 0.1 mm 3 m/s 752 mmHg 71%
13:00 +29°C° 0.1 mm 4 m/s 752 mmHg 66%
14:00 +29°C° 0.1 mm 4 m/s 751 mmHg 67%
15:00 +29°C° 0.1 mm 3 m/s 751 mmHg 68%
16:00 +29°C° 0.1 mm 3 m/s 750 mmHg 69%
17:00 +27°C° 0.1 mm 3 m/s 751 mmHg 76%
18:00 +26°C° 0.1 mm 2 m/s 751 mmHg 83%
19:00 +24°C° 0.1 mm 1 m/s 751 mmHg 90%
20:00 +24°C° 0.1 mm 1 m/s 752 mmHg 90%
21:00 +24°C° 0.1 mm 1 m/s 752 mmHg 91%
22:00 +22°C° 0.1 mm 0 m/s 752 mmHg 91%
23:00 +23°C° 0.2 mm 1 m/s 752 mmHg 92%

Amanhã, 24 Junho, Quinta-feira

Tempo Temperatura Precipitação Vento Pressão Humidade
00:00 +23°C° 0.2 mm 1 m/s 752 mmHg 93%
01:00 +23°C° 0.2 mm 1 m/s 752 mmHg 94%
02:00 +23°C° 0.2 mm 1 m/s 752 mmHg 94%
03:00 +23°C° 0.2 mm 1 m/s 752 mmHg 94%
04:00 +23°C° 0.2 mm 1 m/s 751 mmHg 94%
05:00 +23°C° 0.2 mm 1 m/s 752 mmHg 94%
06:00 +23°C° 0.2 mm 1 m/s 752 mmHg 94%
07:00 +24°C° 0.2 mm 1 m/s 752 mmHg 93%
08:00 +24°C° 0.5 mm 2 m/s 752 mmHg 92%
09:00 +25°C° 0.5 mm 2 m/s 753 mmHg 90%
10:00 +25°C° 0.5 mm 3 m/s 753 mmHg 89%
11:00 +25°C° 0.4 mm 3 m/s 753 mmHg 87%
12:00 +26°C° 0.4 mm 3 m/s 752 mmHg 86%
13:00 +26°C° 0.4 mm 3 m/s 752 mmHg 84%
14:00 +27°C° 0.1 mm 3 m/s 751 mmHg 79%
15:00 +27°C° 0.1 mm 4 m/s 751 mmHg 75%
16:00 +28°C° 0.1 mm 4 m/s 750 mmHg 70%
17:00 +26°C° 0 mm 3 m/s 751 mmHg 76%
18:00 +25°C° 0 mm 2 m/s 751 mmHg 83%
19:00 +24°C° 0 mm 1 m/s 751 mmHg 89%
20:00 +24°C° 0.1 mm 1 m/s 751 mmHg 91%
21:00 +23°C° 0.1 mm 2 m/s 752 mmHg 92%
22:00 +23°C° 0.1 mm 2 m/s 752 mmHg 93%
23:00 +23°C° 0.4 mm 2 m/s 752 mmHg 94%

Depois de amanhã, 25 Junho, Sexta-feira

Tempo Temperatura Precipitação Vento Pressão Humidade
00:00 +23°C° 0.4 mm 2 m/s 752 mmHg 95%
01:00 +23°C° 0.4 mm 2 m/s 752 mmHg 95%
02:00 +23°C° 0.2 mm 2 m/s 752 mmHg 94%
03:00 +23°C° 0.2 mm 2 m/s 751 mmHg 94%
04:00 +23°C° 0.2 mm 2 m/s 751 mmHg 93%
05:00 +21°C° 0 mm 2 m/s 752 mmHg 93%
06:00 +21°C° 0 mm 2 m/s 752 mmHg 93%
07:00 +21°C° 0 mm 2 m/s 752 mmHg 93%
08:00 +24°C° 0.3 mm 2 m/s 753 mmHg 89%
09:00 +25°C° 0.3 mm 3 m/s 753 mmHg 84%
10:00 +27°C° 0.3 mm 4 m/s 753 mmHg 80%
11:00 +27°C° 0.9 mm 4 m/s 753 mmHg 80%
12:00 +27°C° 0.9 mm 5 m/s 753 mmHg 80%
13:00 +27°C° 0.9 mm 5 m/s 752 mmHg 80%
14:00 +27°C° 0.4 mm 5 m/s 752 mmHg 78%
15:00 +27°C° 0.4 mm 5 m/s 751 mmHg 75%
16:00 +28°C° 0.4 mm 4 m/s 751 mmHg 73%
17:00 +26°C° 0.1 mm 4 m/s 751 mmHg 78%
18:00 +25°C° 0.1 mm 3 m/s 751 mmHg 84%
19:00 +24°C° 0.1 mm 2 m/s 752 mmHg 89%
20:00 +23°C° 0 mm 2 m/s 752 mmHg 89%
21:00 +23°C° 0 mm 2 m/s 752 mmHg 89%
22:00 +23°C° 0 mm 2 m/s 752 mmHg 89%
23:00 +23°C° 0 mm 2 m/s 752 mmHg 89%

26 Junho, Sábado

Tempo Temperatura Precipitação Vento Pressão Humidade
00:00 +23°C° 0 mm 2 m/s 752 mmHg 89%
01:00 +23°C° 0 mm 2 m/s 752 mmHg 89%
02:00 +23°C° 0 mm 2 m/s 751 mmHg 88%
03:00 +23°C° 0 mm 2 m/s 751 mmHg 87%
04:00 +23°C° 0 mm 2 m/s 751 mmHg 86%
05:00 +23°C° 0 mm 2 m/s 751 mmHg 84%
06:00 +23°C° 0 mm 2 m/s 751 mmHg 82%
07:00 +23°C° 0 mm 2 m/s 752 mmHg 80%
08:00 +24°C° 0 mm 3 m/s 752 mmHg 76%
09:00 +25°C° 0 mm 3 m/s 752 mmHg 71%
10:00 +26°C° 0 mm 4 m/s 753 mmHg 67%
11:00 +27°C° 0 mm 4 m/s 752 mmHg 64%
12:00 +28°C° 0 mm 4 m/s 752 mmHg 61%
13:00 +29°C° 0 mm 5 m/s 751 mmHg 59%
14:00 +28°C° 0 mm 5 m/s 751 mmHg 61%
15:00 +28°C° 0 mm 4 m/s 751 mmHg 64%
16:00 +27°C° 0 mm 4 m/s 750 mmHg 67%
17:00 +26°C° 0 mm 3 m/s 751 mmHg 72%
18:00 +24°C° 0 mm 3 m/s 751 mmHg 78%
19:00 +23°C° 0 mm 2 m/s 751 mmHg 83%
20:00 +23°C° 0 mm 2 m/s 752 mmHg 84%
21:00 +21°C° 0 mm 2 m/s 752 mmHg 85%
22:00 +22°C° 0 mm 1 m/s 752 mmHg 86%
23:00 +23°C° 0 mm 1 m/s 752 mmHg 85%

27 Junho, Domingo

Tempo Temperatura Precipitação Vento Pressão Humidade
00:00 +23°C° 0 mm 1 m/s 752 mmHg 84%
01:00 +23°C° 0 mm 1 m/s 752 mmHg 84%
02:00 +23°C° 0.1 mm 2 m/s 752 mmHg 85%
03:00 +23°C° 0.1 mm 2 m/s 751 mmHg 86%
04:00 +23°C° 0.1 mm 2 m/s 751 mmHg 88%
05:00 +23°C° 0.1 mm 2 m/s 751 mmHg 90%
06:00 +21°C° 0.1 mm 2 m/s 752 mmHg 91%
07:00 +21°C° 0.1 mm 2 m/s 752 mmHg 93%
08:00 +24°C° 0.2 mm 3 m/s 752 mmHg 86%
09:00 +25°C° 0.2 mm 4 m/s 753 mmHg 80%
10:00 +27°C° 0.2 mm 4 m/s 753 mmHg 73%
11:00 +27°C° 0 mm 5 m/s 753 mmHg 67%
12:00 +28°C° 0 mm 5 m/s 752 mmHg 61%
13:00 +29°C° 0 mm 5 m/s 752 mmHg 55%
14:00 +28°C° 0 mm 5 m/s 751 mmHg 58%
15:00 +28°C° 0 mm 4 m/s 751 mmHg 61%
16:00 +27°C° 0 mm 4 m/s 751 mmHg 64%
17:00 +26°C° 0.1 mm 3 m/s 751 mmHg 70%
18:00 +25°C° 0.1 mm 3 m/s 752 mmHg 77%
19:00 +23°C° 0.1 mm 2 m/s 752 mmHg 83%
20:00 +23°C° 0 mm 2 m/s 752 mmHg 83%
21:00 +23°C° 0 mm 2 m/s 753 mmHg 82%
22:00 +23°C° 0 mm 2 m/s 753 mmHg 82%
23:00 +23°C° 0 mm 2 m/s 753 mmHg 83%

28 Junho, Segunda-feira

Tempo Temperatura Precipitação Vento Pressão Humidade
00:00 +21°C° 0 mm 2 m/s 753 mmHg 85%
01:00 +21°C° 0 mm 2 m/s 753 mmHg 86%
02:00 +21°C° 0 mm 2 m/s 752 mmHg 87%
03:00 +20°C° 0 mm 2 m/s 752 mmHg 88%
04:00 +20°C° 0 mm 2 m/s 752 mmHg 89%
05:00 +20°C° 0.1 mm 2 m/s 752 mmHg 88%
06:00 +21°C° 0.1 mm 2 m/s 753 mmHg 87%
07:00 +21°C° 0.1 mm 2 m/s 753 mmHg 87%
08:00 +23°C° 0.1 mm 2 m/s 753 mmHg 82%
09:00 +25°C° 0.1 mm 3 m/s 754 mmHg 78%
10:00 +26°C° 0.1 mm 3 m/s 754 mmHg 74%
11:00 +27°C° 0.1 mm 4 m/s 754 mmHg 71%
12:00 +28°C° 0.1 mm 4 m/s 753 mmHg 67%
13:00 +28°C° 0.1 mm 5 m/s 753 mmHg 64%
14:00 +28°C° 0.1 mm 4 m/s 753 mmHg 67%
15:00 +27°C° 0.1 mm 4 m/s 752 mmHg 69%
16:00 +27°C° 0.1 mm 4 m/s 752 mmHg 71%
17:00 +26°C° 0.1 mm 3 m/s 752 mmHg 76%
18:00 +24°C° 0.1 mm 3 m/s 753 mmHg 82%
19:00 +23°C° 0.1 mm 2 m/s 753 mmHg 87%
20:00 +23°C° 0.1 mm 2 m/s 754 mmHg 88%
21:00 +22°C° 0.1 mm 1 m/s 754 mmHg 88%
22:00 +22°C° 0.1 mm 1 m/s 754 mmHg 89%
23:00 +22°C° 0 mm 1 m/s 754 mmHg 90%
Mostrar mais

Necessitamos do seu Consentimento

A Meteoprog e os seus Fornecedores de Serviços podem armazenar e aceder a dados pessoais como cookies, identificadores do dispositivo ou outras tecnologias semelhantes existentes no seu dispositivo e processar estes dados para personalizar conteúdos e anúncios, assim como funcionalidades nas redes sociais e análise de tráfego.

  • Armazenar e/ou aceder a informações no seu dispositivo

    Os cookies, identificadores do dispositivo ou outras informações podem ser armazenados ou acedidos no seu dispositivo, para os fins acima indicados.

  • Anúncios e conteúdos personalizados, medição de anúncios e conteúdos, dados sobre o público-alvo e desenvolvimento de produtos

    Os anúncios e os conteúdos podem ser personalizados com base num perfil. Podem ser adicionados dados adicionais para uma maior personalização dos anúncios e dos conteúdos. A eficácia dos anúncios e dos conteúdos pode ser medida. Podem ser obtidas informações sobre o público que visualizou os anúncios e os conteúdos. Estes dados podem ser usados para desenvolver ou melhorar sistemas, softwares ou a experiência do utilizador.

Ao clicar em "Eu concordo”, permitirá o uso de cookies, identificadores do dispositivo e web beacons mencionados ou outras tecnologias semelhantes. As configurações do navegador do seu dispositivo podem ser alteradas.

Para certos fins, podem ser invocados interesses legítimos ao invés de consentimento. Pode ler mais informação sobre este assunto na nossa Política de Privacidade e Cookies.